This demonstration page uses our WeatherBlox Daily Observations layout. Learn more.

Left ArrowRight Arrow

Hourly Observations for July 29, 2016

Temp ( °F °C ) Dew Point ( °F °C ) Humidity (%) Winds ( mph kmh ) Pressure ( in mb ) Visibility ( mi km ) Precip ( " mm )
12:15 am 00:15 Mostly Cloudy 66 18.8 64 17.6 93 93 N N/A 30.03 1017 10 16 N/A
12:35 am 00:35 Partly Cloudy 65 18.5 63 17.4 93 93 ENE 3 6 30.03 1017 7 11 N/A
12:55 am 00:55 Mostly Cloudy 66 18.7 62 16.9 89 89 ENE 8 13 30.03 1017 10 16 N/A
1:15 am 01:15 Partly Cloudy 65 18.1 61 16.1 88 88 E 5 7 30.03 1017 10 16 N/A
1:35 am 01:35 Partly Cloudy 64 18 61 16.2 89 89 N N/A 30.03 1017 10 16 N/A
1:55 am 01:55 Partly Cloudy 64 17.6 61 16.1 91 91 ENE 5 7 30.03 1017 10 16 N/A
2:15 am 02:15 Clear 64 17.5 61 16.2 92 92 ESE 5 7 30.03 1017 10 16 N/A
2:35 am 02:35 Clear 63 17.3 61 16.1 93 93 N N/A 30.06 1018 10 16 N/A
2:55 am 02:55 Clear 63 17.3 61 16.2 93 93 N N/A 30.00 1016 10 16 N/A
3:15 am 03:15 Clear 62 16.8 60 15.8 94 94 N N/A 30.03 1017 10 16 N/A
3:35 am 03:35 Clear with Mist and Fog 61 16.1 59 15.2 94 94 N 5 7 30.03 1017 5 8 N/A
3:55 am 03:55 Clear with Mist and Fog 61 15.9 59 15 94 94 N N/A 30.03 1017 5 8 N/A
4:15 am 04:15 Clear 60 15.7 59 15 96 96 N N/A 30.03 1017 7 11 N/A
4:35 am 04:35 Clear 60 15.5 58 14.6 94 94 NNW 5 7 30.03 1017 7 11 N/A
4:55 am 04:55 Clear 60 15.5 58 14.6 94 94 W 3 6 30.03 1017 7 11 N/A
5:15 am 05:15 Clear 59 15.2 58 14.5 96 96 WNW 3 6 30.03 1017 7 11 N/A
5:35 am 05:35 Clear 59 15.1 58 14.3 95 95 WNW 5 7 30.03 1017 7 11 N/A
5:55 am 05:55 Clear 59 15 58 14.2 95 95 NW 3 6 30.03 1017 7 11 N/A
6:15 am 06:15 Clear 59 15 57 14.1 94 94 NNW 5 7 30.03 1017 7 11 N/A
6:35 am 06:35 Sunny 59 14.8 57 14 95 95 W 3 6 30.03 1017 7 11 N/A
6:55 am 06:55 Partly Cloudy with Mist and Fog 59 15 58 14.2 95 95 NW 3 6 30.03 1017 5 8 N/A
7:15 am 07:15 Cloudy 60 15.8 59 15 95 95 NNW 3 6 30.06 1018 7 11 N/A
7:35 am 07:35 Cloudy 61 16.3 60 15.5 95 95 N N/A 30.06 1018 10 16 N/A
7:55 am 07:55 Cloudy 62 16.5 60 15.7 95 95 N N/A 30.06 1018 10 16 N/A
8:15 am 08:15 Cloudy 62 16.9 61 16 94 94 N N/A 30.06 1018 10 16 N/A
8:35 am 08:35 Cloudy 64 17.5 62 16.6 95 95 N N/A 30.03 1017 10 16 N/A
8:55 am 08:55 Mostly Cloudy 65 18.6 63 17.3 92 92 N N/A 30.03 1017 10 16 N/A
9:15 am 09:15 Sunny 67 19.5 64 17.7 89 89 ENE 6 9 30.03 1017 10 16 N/A
9:35 am 09:35 Partly Cloudy 68 20 64 17.7 87 87 NE 3 6 30.03 1017 10 16 N/A
9:55 am 09:55 Partly Cloudy 69 20.5 64 17.8 85 85 ENE 3 6 30.03 1017 10 16 N/A
10:15 am 10:15 Sunny 70 21.2 64 17.7 81 81 SE 6 9 30.00 1016 10 16 N/A
10:35 am 10:35 Partly Cloudy 71 21.5 64 17.6 79 79 N N/A 30.00 1016 10 16 N/A
10:55 am 10:55 Partly Cloudy 71 21.7 64 18 80 80 N N/A 30.00 1016 10 16 N/A
11:15 am 11:15 Mostly Cloudy 73 23 65 18.1 74 74 N N/A 30.00 1016 10 16 N/A
11:35 am 11:35 Partly Cloudy 73 23 65 18.4 75 75 N N/A 30.00 1016 10 16 N/A
11:55 am 11:55 Partly Cloudy 74 23.5 63 17.3 68 68 N N/A 30.00 1016 10 16 N/A
12:15 pm 12:15 Mostly Cloudy 75 24.1 64 17.7 68 68 SE 3 6 30.00 1016 10 16 N/A
12:35 pm 12:35 Mostly Cloudy 75 24 64 17.7 68 68 N N/A 30.00 1016 10 16 N/A
12:55 pm 12:55 Mostly Cloudy 77 25.1 64 17.6 63 63 SSW 3 6 29.97 1015 10 16 N/A
1:15 pm 13:15 Mostly Cloudy 77 25.1 63 17.4 62 62 N N/A 29.97 1015 10 16 N/A
1:35 pm 13:35 Partly Cloudy 76 24.7 64 18 66 66 N N/A 29.94 1014 10 16 N/A
1:55 pm 13:55 Partly Cloudy 77 25.2 64 17.9 64 64 N 5 7 29.94 1014 10 16 N/A
2:15 pm 14:15 Mostly Cloudy 78 25.5 63 17.3 61 61 N 3 6 29.94 1014 10 16 N/A
2:35 pm 14:35 Partly Cloudy 77 25.1 65 18.2 66 66 NE 3 6 29.94 1014 10 16 N/A
2:55 pm 14:55 Sunny 78 25.8 63 17.4 60 60 N N/A 29.94 1014 10 16 N/A
3:15 pm 15:15 Sunny 79 26 63 17.4 59 59 N N/A 29.94 1014 10 16 N/A
3:35 pm 15:35 Partly Cloudy 79 26 64 17.6 60 60 NE 3 6 29.91 1013 10 16 N/A
3:55 pm 15:55 Hazy 78 25.6 64 17.9 63 63 N N/A 29.91 1013 5 8 N/A
4:15 pm 16:15 Partly Cloudy 79 25.9 65 18.4 63 63 ENE 5 7 29.91 1013 10 16 N/A
4:35 pm 16:35 Hazy 77 25.2 65 18.5 66 66 E 5 7 29.91 1013 3 5 N/A
4:55 pm 16:55 Partly Cloudy 79 26.2 65 18.4 62 62 E 6 9 29.91 1013 10 16 N/A
5:15 pm 17:15 Partly Cloudy 78 25.6 64 17.7 62 62 ENE 6 9 29.91 1013 10 16 N/A
5:35 pm 17:35 Partly Cloudy 79 26.1 66 18.7 64 64 E 6 9 29.91 1013 10 16 N/A
5:55 pm 17:55 Mostly Cloudy 78 25.4 64 18 64 64 E 6 9 29.91 1013 10 16 N/A
6:15 pm 18:15 Partly Cloudy 79 26 65 18.6 64 64 E 6 9 29.91 1013 10 16 N/A
6:35 pm 18:35 Sunny 78 25.5 65 18.1 64 64 E 5 7 29.91 1013 10 16 N/A
6:55 pm 18:55 Partly Cloudy 78 25.6 65 18.2 64 64 ESE 6 9 29.91 1013 10 16 N/A
7:15 pm 19:15 Sunny 76 24.5 65 18.6 70 70 E 7 11 29.91 1013 10 16 N/A
7:35 pm 19:35 Sunny 76 24.5 65 18.3 68 68 E 5 7 29.91 1013 10 16 N/A
7:55 pm 19:55 Sunny 75 23.9 66 18.8 73 73 E 6 9 29.91 1013 10 16 N/A
8:15 pm 20:15 Sunny 75 24 65 18.5 71 71 E 6 9 29.91 1013 10 16 N/A
8:35 pm 20:35 Sunny 73 23 65 18.5 76 76 E 6 9 29.94 1014 10 16 N/A
8:55 pm 20:55 Sunny 72 22.1 66 18.7 81 81 E 6 9 29.94 1014 10 16 N/A
9:15 pm 21:15 Clear 71 21.7 65 18.6 83 83 E 6 9 29.94 1014 10 16 N/A
9:35 pm 21:35 Clear 71 21.7 65 18.4 82 82 E 6 9 29.94 1014 10 16 N/A
9:55 pm 21:55 Clear 72 22.2 64 17.8 76 76 ESE 7 11 29.94 1014 10 16 N/A
10:15 pm 22:15 Clear 71 21.8 64 17.7 78 78 E 8 13 29.94 1014 10 16 N/A
10:35 pm 22:35 Clear 71 21.5 64 17.8 80 80 ESE 5 7 29.94 1014 10 16 N/A
10:55 pm 22:55 Clear 70 21.1 64 17.9 82 82 ESE 5 7 29.94 1014 10 16 N/A
11:15 pm 23:15 Clear 69 20.5 64 18 86 86 ESE 7 11 29.94 1014 10 16 N/A
11:35 pm 23:35 Clear 69 20.7 64 18 85 85 SE 6 9 29.94 1014 10 16 N/A
11:55 pm 23:55 Clear 69 20.5 64 18 86 86 SE 8 13 29.94 1014 10 16 N/A

Powered by AerisWeather